Home   Weather   Honolulu   Past weeks

Flag for USA Past Weather in Honolulu, Hawaii, USA — Yesterday and Last 2 Weeks

Now
77 °F

Passing clouds.


Feels Like: 79 °F
Forecast: 71 / 82 °F
Wind: 9 mph from East

Location: Honolulu International Airport

Current Time: Apr 25, 2017 at 10:01:28 pm

Latest Report: Apr 25, 2017 at 8:53 pm


Visibility: 10 mi

Pressure: 30.09 "Hg

Humidity: 69%

Dew Point: 66 °F

Location of HonoluluLocation

Past Weather in Honolulu — Graph

°F

Honolulu Temperature Yesterday

Maximum temperature yesterday: 86 °F (at 1:53 pm)
Minimum temperature yesterday: 73 °F (at 5:53 am)
Average temperature yesterday: 79 °F

High & Low Weather Summary for the Past Weeks

 TemperatureHumidityPressure
High86 °F (Apr 12, 1:53 pm)97% (Apr 20, 7:53 pm)30.14 "Hg (Apr 20, 7:53 pm)
Low70 °F (Apr 15, 3:53 am)42% (Apr 15, 12:53 pm)29.93 "Hg (Apr 19, 4:53 pm)
Average77 °F67%30.03 "Hg
* Reported Apr 10 8:53 pm — Apr 25 8:53 pm, Honolulu, Weather by CustomWeather, © 2017

Note: Actual official high and low records may vary slightly from our data, if they occured in-between our weather recording intervals... More about our weather records

Advertising

Honolulu Weather History for the Previous 24 Hours

Scroll right to see more
 ConditionsComfort  
Time TempWeatherWind HumidityBarometerVisibility
8:53 pm
Tue, Apr 25
77 °FPassing clouds.9 mph69%30.09 "Hg10 mi
7:53 pm78 °FPassing clouds.12 mph66%30.07 "Hg10 mi
6:53 pm79 °FPartly sunny.10 mph65%30.05 "Hg10 mi
5:53 pm80 °FScattered clouds.9 mph60%30.03 "Hg10 mi
4:53 pm81 °FBroken clouds.9 mph60%30.02 "Hg10 mi
3:53 pm82 °FBroken clouds.14 mph58%30.03 "Hg10 mi
2:53 pm83 °FBroken clouds.15 mph57%30.04 "Hg10 mi
1:53 pm83 °FBroken clouds.13 mph55%30.06 "Hg10 mi
12:53 pm80 °FBroken clouds.13 mph64%30.09 "Hg10 mi
11:53 am84 °FScattered clouds.15 mph53%30.09 "Hg10 mi
10:53 am85 °FScattered clouds.18 mph48%30.11 "Hg10 mi
9:53 am82 °FScattered clouds.15 mph53%30.10 "Hg10 mi
8:53 am81 °FScattered clouds.13 mph56%30.10 "Hg10 mi
7:53 am78 °FPassing clouds.13 mph64%30.09 "Hg10 mi
6:53 am76 °FPassing clouds.8 mph69%30.08 "Hg10 mi
5:53 am74 °FPassing clouds.8 mph71%30.07 "Hg10 mi
4:53 am74 °FPassing clouds.5 mph69%30.06 "Hg10 mi
3:53 am73 °FPassing clouds.3 mph69%30.05 "Hg10 mi
2:53 am73 °FPassing clouds.5 mph71%30.06 "Hg10 mi
1:53 am74 °FPassing clouds.3 mph69%30.08 "Hg10 mi
12:53 am75 °FPassing clouds.6 mph69%30.09 "Hg10 mi
11:53 pm
Mon, Apr 24
76 °FClear.8 mph67%30.10 "Hg10 mi
10:53 pm76 °FPassing clouds.5 mph67%30.10 "Hg10 mi
Weather by CustomWeather, © 2017

See weather overviewHow to use our weather pages